• MPC Preparation (Info)

  • MPEC 2016-O19 : 2014 MZ69

    The following Minor Planet Electronic Circular may be linked-to from your own Web pages, but must not otherwise be redistributed electronically.

    A form allowing access to any MPEC is at the bottom of this page.


    Read MPEC 2016-O18 Read MPEC 2016-O20


    M.P.E.C. 2016-O19                                Issued 2016 July 16, 03:15 UT
    
         The Minor Planet Electronic Circulars contain information on unusual
             minor planets and routine data on comets.  They are published
        on behalf of Division F of the International Astronomical Union by the
              Minor Planet Center, Smithsonian Astrophysical Observatory,
                              Cambridge, MA 02138, U.S.A.
    
                 Prepared using the Tamkin Foundation Computer Network
    
                                  MPC@CFA.HARVARD.EDU
                URL https://www.minorplanetcenter.net/    ISSN 1523-6714
    
                                       2014 MZ69
    
    Observations:
         K14M69Z  C2011 07 27.48155 22 39 06.501-19 03 43.45         22.2 wLEO019F51
         K14M69Z  C2011 07 27.51095 22 39 06.383-19 03 44.07         22.2 wLEO019F51
         K14M69Z  C2011 07 27.52568 22 39 06.318-19 03 44.52         22.1 wLEO019F51
         K14M69Z  C2012 08 17.44424 22 42 52.735-18 27 56.04         22.1 wLEO019F51
         K14M69Z  C2012 08 17.45852 22 42 52.666-18 27 56.69         22.2 wLEO019F51
         K14M69Z  C2012 08 17.47278 22 42 52.606-18 27 57.03         22.3 wLEO019F51
         K14M69Z  C2012 08 17.48705 22 42 52.537-18 27 57.24         21.8 wLEO019F51
         K14M69Z  C2013 08 09.45034 22 48 45.480-17 37 55.33         22.2 wLEO019F51
         K14M69Z  C2013 08 09.46458 22 48 45.431-17 37 55.72         22.3 wLEO019F51
         K14M69Z  C2013 08 09.47882 22 48 45.370-17 37 56.07         22.1 wLEO019F51
         K14M69Z  C2013 08 09.49306 22 48 45.307-17 37 56.61         22.2 wLEO019F51
         K14M69Z  C2013 08 31.41177 22 47 03.155-17 47 57.27         22.3 wLEO019F51
         K14M69Z  C2013 08 31.42626 22 47 03.100-17 47 57.60         22.2 wLEO019F51
         K14M69Z  C2013 08 31.44073 22 47 03.021-17 47 57.75         22.3 wLEO019F51
         K14M69Z  C2013 08 31.45520 22 47 02.940-17 47 58.31         22.1 wLEO019F51
         K14M69Z* C2014 06 28.56220 22 56 00.650-16 34 07.41         21.9 wLEO019F51
         K14M69Z  C2014 06 28.57407 22 56 00.635-16 34 07.64         21.8 wLEO019F51
         K14M69Z  C2014 06 28.59782 22 56 00.601-16 34 08.17         22.1 wLEO019F51
         K14M69Z  C2014 07 08.53732 22 55 42.430-16 37 35.10         22.2 wLEO019F51
         K14M69Z  C2014 07 08.56093 22 55 42.373-16 37 35.57         22.2 wLEO019F51
         K14M69Z  C2014 07 08.57273 22 55 42.350-16 37 35.76         22.2 wLEO019F51
         K14M69Z  C2014 07 29.50344 22 54 39.457-16 46 27.79         22.4 wLEO019F51
         K14M69Z  C2014 07 29.51491 22 54 39.397-16 46 28.17         22.1 wLEO019F51
         K14M69Z  C2014 07 29.52635 22 54 39.358-16 46 28.50         22.3 wLEO019F51
         K14M69Z  C2014 07 29.53781 22 54 39.305-16 46 28.97         22.2 wLEO019F51
         K14M69Z  C2014 08 28.36912 22 52 29.678-17 00 21.41         22.5 wLEO019F51
         K14M69Z  C2014 08 28.37965 22 52 29.627-17 00 21.66         21.9 wLEO019F51
         K14M69Z  C2014 08 28.39019 22 52 29.571-17 00 22.18         22.2 wLEO019F51
         K14M69Z  C2014 08 28.40073 22 52 29.532-17 00 22.22         21.9 wLEO019F51
         K14M69Z  C2014 09 18.38585 22 50 49.532-17 08 42.66         22.3 wLEO019F51
         K14M69Z  C2014 09 18.39704 22 50 49.484-17 08 43.20         22.1 wLEO019F51
         K14M69Z  C2014 09 18.40823 22 50 49.409-17 08 43.51         22.3 wLEO019F51
         K14M69Z  C2014 09 18.41941 22 50 49.379-17 08 43.72         22.1 wLEO019F51
         K14M69Z  C2015 06 25.55855 23 01 03.454-15 47 18.78         22.4 wLEO019F51
         K14M69Z  C2015 06 25.56968 23 01 03.444-15 47 19.11         22.4 wLEO019F51
         K14M69Z  C2015 06 25.58087 23 01 03.431-15 47 19.33         22.1 wLEO019F51
         K14M69Z  C2015 06 25.59204 23 01 03.418-15 47 19.60         22.4 wLEO019F51
         K14M69Z  C2015 07 12.50616 23 00 34.415-15 52 57.02         22.3 wLEO019F51
         K14M69Z  C2015 07 12.51730 23 00 34.385-15 52 57.17         22.3 wLEO019F51
         K14M69Z  C2015 07 12.52846 23 00 34.368-15 52 57.27         22.1 wLEO019F51
         K14M69Z  C2015 07 12.53962 23 00 34.342-15 52 57.69         22.0 wLEO019F51
    
    Observer details:
    F51 Pan-STARRS 1, Haleakala.  Observers B. Gibson, T. Goggia, N. Primak,
        A. Schultz, M. Willman.  Measurers K. Chambers, S. Chastel, Y.-T. Chen,
        L. Denneau, H. Flewelling, M. Holman, M. Huber, R. Jedicke, M. Lackner,
        E. Lilly, H.-W. Lin, E. Magnier, M. Micheli, M. Payne, P. Veres,
        R. Wainscoat, C. Waters, R. Weryk.  1.8-m Ritchey-Chretien + CCD.
    
    Orbital elements:
    2014 MZ69
    Epoch 2016 July 31.0 TT = JDT 2457600.5                 MPC
    M  50.83549              (2000.0)            P               Q
    n   0.00317330     Peri.  248.13791     -0.02793525     +0.99647601
    a  45.8629649      Node    20.73715     -0.81472559     +0.02314533
    e   0.1956857      Incl.   12.90680     -0.57917340     -0.08062163
    P 311              H    5.9           G   0.15           U   2
    Residuals in seconds of arc
    110727 F51  0.1+  0.3-    130831 F51  0.0   0.0     140828 F51  0.0   0.0
    110727 F51  0.1+  0.1-    140628 F51  0.0   0.1-    140918 F51  0.0   0.4+
    110727 F51  0.0   0.1-    140628 F51  0.1+  0.1-    140918 F51  0.1+  0.1+
    120817 F51  0.1-  0.3+    140628 F51  0.1+  0.1-    140918 F51  0.3-  0.0
    120817 F51  0.1-  0.0     140708 F51  0.2+  0.2-    140918 F51  0.1+  0.0
    120817 F51  0.0   0.1+    140708 F51  0.2+  0.2-    150625 F51  0.1-  0.1+
    120817 F51  0.0   0.2+    140708 F51  0.2+  0.1-    150625 F51  0.0   0.1-
    130809 F51  0.3-  0.0     140729 F51  0.1+  0.2+    150625 F51  0.1-  0.1-
    130809 F51  0.1-  0.0     140729 F51  0.2-  0.1+    150625 F51  0.1-  0.2-
    130809 F51  0.0   0.1+    140729 F51  0.1-  0.1+    150712 F51  0.1+  0.1-
    130809 F51  0.0   0.0     140729 F51  0.3-  0.1-    150712 F51  0.0   0.0
    130831 F51  0.0   0.0     140828 F51  0.1-  0.1-    150712 F51  0.2+  0.2+
    130831 F51  0.3+  0.0     140828 F51  0.1-  0.0     150712 F51  0.2+  0.0
    130831 F51  0.2+  0.2+    140828 F51  0.2-  0.3-
    
    Ephemeris:
    2014 MZ69                a,e,i = 45.86, 0.20, 13                 q = 36.888
    Date    TT    R. A. (2000) Decl.     Delta      r     Elong.  Phase     V
    2016 06 16    23 06 01.5 -14 59 31  41.1930 41.4361   103.2     1.4    22.2
    ...
    2016 07 01    23 05 50.2 -15 03 13  40.9663 41.4433   117.4     1.2    22.2
    ...
    2016 07 09    23 05 36.2 -15 05 52  40.8566 41.4471   124.9     1.2    22.2
    ...
    2016 07 15    23 05 22.4 -15 08 06  40.7811 41.4500   130.6     1.1    22.2
    2016 07 16    23 05 19.8 -15 08 29  40.7692 41.4505   131.6     1.1    22.2
    2016 07 17    23 05 17.2 -15 08 53  40.7575 41.4510   132.5     1.0    22.2
    ...
    2016 07 23    23 04 59.9 -15 11 22  40.6912 41.4538   138.2     0.9    22.2
    ...
    2016 07 31    23 04 33.0 -15 14 52  40.6150 41.4577   145.7     0.8    22.2
    ...
    2016 08 15    23 03 33.3 -15 21 49  40.5147 41.4648   159.5     0.5    22.1
    
    A. U. Tomatic                (C) Copyright 2016 MPC           M.P.E.C. 2016-O19
    

    Read MPEC 2016-O18 Read MPEC 2016-O20


    MPEC number:

    Enter an MPEC number in one of the following forms:

    • 1997-B01 (the full form)
    • J97B01 (the packed version of the full form)
    • B01 (the abbreviated form)